THOR ABLESTAR DEB, 48817

Orbit data source: Space-Track

THOR ABLESTAR DEB, 48817 is space debris in LEO originally from a launch on Thu, 29 Jun 1961 UTC launched from the Air Force Eastern Test Range (AFETR). Debris objects in space refer to the collection of defunct objects orbiting the Earth. Examples of debris include non-operational satellites, rocket bodies, and fragments generated from explosions, collisions, or faulty payload assembly.

Loading next visibility...
Identifier
48817, 1961-015MV
Orbit
LEO
Country
Flag of USUS
Related business
Manufacturer
Unknown
Mission
Spacecraft
Bus & Motor
Unknown
Mass
Unknown
Launch date (UTC)
1961-06-29 (65 years ago)
Launch vehicle
Unknown
Launch site
Air Force Eastern Test Range (AFETR)
Object type
Payload
Rocket body
Debris
Shape & HBR
Unknown shape, 0.1 m
Radar Cross Section
Small (<0.1 m²)

Expand to show TLE details & history
Last TLE update: 2 weeks ago

TLE from 2 weeks ago
0 THOR ABLESTAR DEB
1 48817U 61015MV  26186.76710839  .00000329  00000-0  27909-3 0  9999
2 48817  65.8432 318.1585 0212472 208.8816 150.0362 13.89966817639845
Epoch: 2026-07-05T18:24Z
TLE epoch observation values (Epoch: 2026-07-05T18:24:38.164Z)
Latitude
-0.00004°
Longitude
118.23774°
Altitude
1,066.062 km
Speed
7.251 km/s
True Right ascension
21h 12m 38s
True Declination
0° 00' 00"
Sunlit
Object was in full shadow at epoch
Visualization orbit readout
Latitude
Unknown
Longitude
Unknown
Altitude
Unknown
Speed
Unknown
Apparent Right ascension
Unknown
Apparent Declination
Unknown
Sunlit
N/A
Visualization observer readout
Local Sidereal Time
19:17:47
Azimuth
Unknown
Elevation
Unknown
Doppler factor
Unknown
Orbital elements
Apogee altitude
1,082.47 km
Perigee altitude
772.032 km
Semi-major axis
7,305.388 km
Eccentricity
0.02125
Inclination
65.8432°
RAAN
318.1585°
Arg. of periapsis
208.8816°
True anomaly
151.22478°
Mean anomaly
150.0362°
Eccentric anomaly
150.6332°
Mean motion
3.47599 °/min
Orbital period
103.57 mins
BSTAR
0.00027909
Loading maneuver chart data...
Computing Atmospheric mass density...
Loading historical data...
Loading historical data...
Loading historical data...
Loading historical data...
Loading historical data...
Loading historical data...
Loading historical data...

Documentation

Showing up to 5 results
|